RYR5BC LIBD-LICJ

Flight info

Callsign RYR5BC
Flight time 0h 50m
Altitude 35000
Route TOPNO DCT BUMOK DCT KUTID DCT AMANO M742 ROSAS
Aircraft B738/M-SDE2E3FGHIRWXY/LB1

Departure

Time 2026-05-06 10:17
Airport Bari Karol Wojtyła International Airport (LIBD)

Arrival

Time 2026-05-06 11:07
Airport Falcone–Borsellino Airport (LICJ)
Time Latitude Longitude Altitude Speed Heading
2026-05-06 09:57 41.13577 16.76512 135 ft 0 kts 159°
2026-05-06 10:11 41.13583 16.76509 135 ft 4 kts 158°
2026-05-06 10:11 41.13607 16.76493 135 ft 4 kts 142°
2026-05-06 10:11 41.13625 16.76468 135 ft 4 kts 109°
2026-05-06 10:12 41.13625 16.76443 135 ft 1 kts 60°
2026-05-06 10:12 41.13623 16.76438 135 ft 0 kts 60°
2026-05-06 10:14 41.13623 16.76439 135 ft 1 kts 60°
2026-05-06 10:14 41.13658 16.76517 135 ft 13 kts 47°
2026-05-06 10:14 41.13741 16.76561 135 ft 13 kts 353°
2026-05-06 10:14 41.13815 16.76596 133 ft 13 kts 62°
2026-05-06 10:15 41.13854 16.76726 127 ft 20 kts 69°
2026-05-06 10:15 41.13908 16.76917 124 ft 23 kts 72°
2026-05-06 10:15 41.13963 16.77109 118 ft 22 kts 68°
2026-05-06 10:15 41.14014 16.77287 123 ft 13 kts 69°
2026-05-06 10:16 41.14054 16.77375 118 ft 12 kts 33°
2026-05-06 10:16 41.14136 16.77410 118 ft 13 kts 14°
2026-05-06 10:16 41.14213 16.77365 114 ft 15 kts 280°
2026-05-06 10:16 41.14155 16.77129 119 ft 57 kts 249°
2026-05-06 10:17 41.13926 16.76320 126 ft 128 kts 249°
2026-05-06 10:17 41.13554 16.75022 381 ft 166 kts 247°
2026-05-06 10:17 41.13119 16.73514 1072 ft 178 kts 245°
2026-05-06 10:17 41.12682 16.72063 2214 ft 163 kts 245°
2026-05-06 10:18 41.12264 16.70604 2927 ft 183 kts 250°
2026-05-06 10:18 41.11786 16.68858 3211 ft 217 kts 250°
2026-05-06 10:18 41.11235 16.66870 3524 ft 242 kts 250°
2026-05-06 10:18 41.10623 16.64693 4146 ft 258 kts 249°
2026-05-06 10:19 41.09989 16.62458 5153 ft 260 kts 249°
2026-05-06 10:19 41.09352 16.60223 6211 ft 260 kts 249°
2026-05-06 10:19 41.08714 16.57977 7165 ft 261 kts 249°
2026-05-06 10:19 41.08068 16.55710 8060 ft 264 kts 248°
2026-05-06 10:20 41.07415 16.53425 9009 ft 266 kts 248°
2026-05-06 10:20 41.06755 16.51115 9960 ft 269 kts 248°
2026-05-06 10:20 41.06079 16.48747 10548 ft 285 kts 248°
2026-05-06 10:20 41.05344 16.46176 10758 ft 312 kts 248°
2026-05-06 10:21 41.04557 16.43417 11273 ft 325 kts 249°
2026-05-06 10:21 41.03751 16.40594 12089 ft 329 kts 249°
2026-05-06 10:21 41.02939 16.37748 12954 ft 332 kts 249°
2026-05-06 10:21 41.02117 16.34873 13765 ft 336 kts 249°
2026-05-06 10:22 41.01288 16.31975 14553 ft 338 kts 249°
2026-05-06 10:22 41.00450 16.29051 15298 ft 342 kts 249°
2026-05-06 10:22 40.99602 16.26095 16015 ft 346 kts 249°
2026-05-06 10:22 40.98743 16.23103 16731 ft 350 kts 249°
2026-05-06 10:23 40.97873 16.20075 17450 ft 354 kts 249°
2026-05-06 10:23 40.96994 16.17021 18181 ft 357 kts 249°
2026-05-06 10:23 40.96102 16.13929 18815 ft 361 kts 249°
2026-05-06 10:23 40.95176 16.10835 19449 ft 364 kts 245°
2026-05-06 10:24 40.93871 16.08004 20070 ft 367 kts 236°
2026-05-06 10:24 40.92368 16.05263 20698 ft 370 kts 234°
2026-05-06 10:24 40.90829 16.02518 21288 ft 373 kts 234°
2026-05-06 10:24 40.89279 15.99744 21878 ft 376 kts 235°
2026-05-06 10:25 40.87732 15.96949 22554 ft 377 kts 235°
2026-05-06 10:25 40.86188 15.94133 23123 ft 380 kts 235°
2026-05-06 10:25 40.84633 15.91284 23618 ft 385 kts 235°
2026-05-06 10:25 40.83064 15.88400 24075 ft 388 kts 235°
2026-05-06 10:26 40.81487 15.85501 24588 ft 389 kts 235°
2026-05-06 10:26 40.79906 15.82594 25059 ft 391 kts 235°
2026-05-06 10:26 40.78314 15.79669 25508 ft 394 kts 235°
2026-05-06 10:26 40.76709 15.76724 25946 ft 396 kts 235°
2026-05-06 10:27 40.75095 15.73764 26390 ft 399 kts 235°
2026-05-06 10:27 40.73472 15.70791 26837 ft 401 kts 235°
2026-05-06 10:27 40.71835 15.67799 27270 ft 403 kts 234°
2026-05-06 10:27 40.70099 15.64820 27686 ft 406 kts 232°
2026-05-06 10:28 40.68288 15.61947 28077 ft 409 kts 230°
2026-05-06 10:28 40.66365 15.59234 28470 ft 412 kts 223°
2026-05-06 10:28 40.64898 15.57571 28787 ft 413 kts 221°
2026-05-06 10:28 40.62691 15.55156 29380 ft 411 kts 221°
2026-05-06 10:29 40.60496 15.52777 30038 ft 407 kts 220°
2026-05-06 10:29 40.57610 15.49643 30676 ft 405 kts 221°
2026-05-06 10:29 40.55445 15.47277 31110 ft 404 kts 221°
2026-05-06 10:29 40.53288 15.44911 31536 ft 404 kts 221°
2026-05-06 10:30 40.51833 15.43312 31827 ft 403 kts 221°
2026-05-06 10:30 40.49687 15.40950 32220 ft 403 kts 221°
2026-05-06 10:30 40.47542 15.38587 32616 ft 402 kts 221°
2026-05-06 10:30 40.45403 15.36231 33090 ft 400 kts 221°
2026-05-06 10:31 40.43280 15.33893 33597 ft 397 kts 221°
2026-05-06 10:31 40.41165 15.31567 34015 ft 396 kts 221°
2026-05-06 10:31 40.39051 15.29243 34353 ft 396 kts 221°
2026-05-06 10:31 40.36970 15.26959 34748 ft 394 kts 222°
2026-05-06 10:32 40.34869 15.24654 35020 ft 394 kts 222°
2026-05-06 10:32 40.32770 15.22352 35035 ft 393 kts 222°
2026-05-06 10:32 40.28558 15.17739 35055 ft 397 kts 222°
2026-05-06 10:33 40.24311 15.13097 35051 ft 399 kts 221°
2026-05-06 10:33 40.20030 15.08424 35054 ft 405 kts 221°
2026-05-06 10:34 40.15635 15.03635 35060 ft 417 kts 221°
2026-05-06 10:34 40.11113 14.98717 35047 ft 428 kts 221°
2026-05-06 10:35 40.06490 14.93699 35053 ft 435 kts 221°
2026-05-06 10:35 40.01826 14.88649 35038 ft 436 kts 221°
2026-05-06 10:36 39.97162 14.83608 35036 ft 435 kts 221°
2026-05-06 10:36 39.92503 14.78578 35038 ft 435 kts 221°
2026-05-06 10:37 39.87840 14.73555 35044 ft 435 kts 221°
2026-05-06 10:37 39.85503 14.71040 34862 ft 438 kts 221°
2026-05-06 10:37 39.83182 14.68546 34792 ft 425 kts 221°
2026-05-06 10:38 39.80941 14.66143 34697 ft 411 kts 221°
2026-05-06 10:38 39.78773 14.63820 34632 ft 398 kts 221°
2026-05-06 10:38 39.76667 14.61564 34550 ft 386 kts 221°
2026-05-06 10:38 39.74617 14.59368 34333 ft 379 kts 221°
2026-05-06 10:39 39.72586 14.57192 33911 ft 378 kts 222°
2026-05-06 10:39 39.70561 14.55024 33407 ft 377 kts 221°
2026-05-06 10:39 39.68541 14.52863 32993 ft 375 kts 221°
2026-05-06 10:39 39.66564 14.50750 32626 ft 372 kts 221°
2026-05-06 10:40 39.64578 14.48629 32252 ft 369 kts 221°
2026-05-06 10:40 39.62606 14.46526 31845 ft 363 kts 221°
2026-05-06 10:40 39.60668 14.44462 31272 ft 359 kts 221°
2026-05-06 10:40 39.58741 14.42410 30638 ft 359 kts 221°
2026-05-06 10:41 39.56803 14.40347 30163 ft 360 kts 221°
2026-05-06 10:41 39.54873 14.38295 29765 ft 358 kts 221°
2026-05-06 10:41 39.52961 14.36263 29387 ft 354 kts 221°
2026-05-06 10:41 39.51064 14.34250 28986 ft 351 kts 221°
2026-05-06 10:42 39.49179 14.32250 28562 ft 349 kts 221°
2026-05-06 10:42 39.47304 14.30263 28147 ft 347 kts 221°
2026-05-06 10:42 39.45441 14.28289 27739 ft 345 kts 221°
2026-05-06 10:42 39.43587 14.26326 27358 ft 343 kts 221°
2026-05-06 10:43 39.41753 14.24386 26921 ft 340 kts 221°
2026-05-06 10:43 39.39919 14.22448 26462 ft 340 kts 221°
2026-05-06 10:43 39.38091 14.20516 26095 ft 339 kts 221°
2026-05-06 10:44 39.34463 14.16688 25363 ft 334 kts 221°
2026-05-06 10:44 39.32666 14.14793 25021 ft 332 kts 221°
2026-05-06 10:44 39.30882 14.12915 24679 ft 330 kts 221°
2026-05-06 10:44 39.29105 14.11044 24340 ft 328 kts 221°
2026-05-06 10:45 39.27339 14.09187 24005 ft 327 kts 221°
2026-05-06 10:45 39.25580 14.07337 23667 ft 325 kts 221°
2026-05-06 10:45 39.23831 14.05499 23279 ft 324 kts 221°
2026-05-06 10:45 39.22090 14.03672 22908 ft 322 kts 221°
2026-05-06 10:46 39.20362 14.01859 22550 ft 319 kts 221°
2026-05-06 10:46 39.18648 14.00062 22224 ft 316 kts 221°
2026-05-06 10:46 39.16949 13.98281 21883 ft 314 kts 221°
2026-05-06 10:46 39.15263 13.96516 21559 ft 311 kts 221°
2026-05-06 10:47 39.13591 13.94767 21240 ft 309 kts 221°
2026-05-06 10:47 39.11929 13.93029 20922 ft 306 kts 221°
2026-05-06 10:47 39.10280 13.91305 20601 ft 304 kts 221°
2026-05-06 10:47 39.08641 13.89593 20287 ft 303 kts 221°
2026-05-06 10:48 39.07012 13.87892 19976 ft 301 kts 221°
2026-05-06 10:48 39.05392 13.86202 19663 ft 299 kts 221°
2026-05-06 10:48 39.03779 13.84520 19362 ft 298 kts 221°
2026-05-06 10:48 39.02172 13.82846 19049 ft 297 kts 221°
2026-05-06 10:49 39.00573 13.81180 18739 ft 295 kts 221°
2026-05-06 10:49 38.98979 13.79521 18430 ft 295 kts 221°
2026-05-06 10:49 38.97389 13.77867 18076 ft 294 kts 221°
2026-05-06 10:49 38.95804 13.76219 17742 ft 292 kts 221°
2026-05-06 10:50 38.94227 13.74580 17420 ft 291 kts 221°
2026-05-06 10:50 38.92661 13.72955 17110 ft 289 kts 221°
2026-05-06 10:50 38.91104 13.71340 16805 ft 287 kts 221°
2026-05-06 10:50 38.89557 13.69736 16506 ft 285 kts 221°
2026-05-06 10:51 38.88019 13.68141 16204 ft 283 kts 221°
2026-05-06 10:51 38.86491 13.66559 15907 ft 282 kts 221°
2026-05-06 10:51 38.84970 13.64984 15611 ft 280 kts 221°
2026-05-06 10:51 38.83458 13.63420 15316 ft 279 kts 222°
2026-05-06 10:52 38.81954 13.61863 15023 ft 277 kts 222°
2026-05-06 10:52 38.80453 13.60313 14732 ft 276 kts 222°
2026-05-06 10:52 38.78960 13.58770 14439 ft 275 kts 222°
2026-05-06 10:52 38.77472 13.57233 14143 ft 274 kts 222°
2026-05-06 10:53 38.75990 13.55705 13860 ft 273 kts 222°
2026-05-06 10:53 38.74515 13.54183 13536 ft 272 kts 222°
2026-05-06 10:53 38.73064 13.52687 13227 ft 270 kts 222°
2026-05-06 10:53 38.71603 13.51183 12927 ft 269 kts 222°
2026-05-06 10:54 38.70153 13.49689 12629 ft 267 kts 222°
2026-05-06 10:54 38.68709 13.48202 12344 ft 266 kts 221°
2026-05-06 10:54 38.67271 13.46723 12053 ft 264 kts 221°
2026-05-06 10:54 38.65839 13.45252 11764 ft 263 kts 221°
2026-05-06 10:55 38.64416 13.43790 11478 ft 262 kts 221°
2026-05-06 10:55 38.62997 13.42332 11193 ft 261 kts 221°
2026-05-06 10:55 38.61581 13.40879 10906 ft 260 kts 221°
2026-05-06 10:55 38.60172 13.39433 10625 ft 260 kts 221°
2026-05-06 10:56 38.58765 13.37991 10345 ft 259 kts 221°
2026-05-06 10:56 38.57366 13.36557 10143 ft 255 kts 221°
2026-05-06 10:56 38.55997 13.35156 9974 ft 250 kts 221°
2026-05-06 10:56 38.54639 13.33765 9679 ft 250 kts 221°
2026-05-06 10:57 38.53283 13.32377 9400 ft 249 kts 220°
2026-05-06 10:57 38.51933 13.30996 9119 ft 248 kts 220°
2026-05-06 10:57 38.50588 13.29620 8858 ft 247 kts 220°
2026-05-06 10:57 38.49249 13.28252 8591 ft 246 kts 220°
2026-05-06 10:58 38.47913 13.26888 8325 ft 245 kts 220°
2026-05-06 10:58 38.46582 13.25529 8056 ft 245 kts 219°
2026-05-06 10:58 38.45256 13.24175 7797 ft 244 kts 219°
2026-05-06 10:58 38.43932 13.22826 7537 ft 243 kts 219°
2026-05-06 10:59 38.42610 13.21478 7269 ft 243 kts 219°
2026-05-06 10:59 38.41290 13.20133 6997 ft 243 kts 219°
2026-05-06 10:59 38.39971 13.18789 6731 ft 243 kts 218°
2026-05-06 10:59 38.38652 13.17447 6465 ft 243 kts 218°
2026-05-06 11:00 38.37333 13.16105 6171 ft 243 kts 218°
2026-05-06 11:00 38.36032 13.14782 5897 ft 243 kts 218°
2026-05-06 11:00 38.34714 13.13443 5627 ft 242 kts 218°
2026-05-06 11:00 38.33388 13.12096 5233 ft 247 kts 218°
2026-05-06 11:01 38.32040 13.10727 4765 ft 250 kts 217°
2026-05-06 11:01 38.30675 13.09342 4269 ft 250 kts 217°
2026-05-06 11:01 38.29330 13.07975 4017 ft 245 kts 217°
2026-05-06 11:01 38.28013 13.06639 3877 ft 238 kts 217°
2026-05-06 11:02 38.26749 13.05357 3815 ft 224 kts 217°
2026-05-06 11:02 38.25573 13.04204 3802 ft 203 kts 210°
2026-05-06 11:02 38.24403 13.03387 3775 ft 182 kts 206°
2026-05-06 11:02 38.23344 13.02656 3726 ft 165 kts 206°
2026-05-06 11:03 38.22345 13.01957 3629 ft 163 kts 207°
2026-05-06 11:03 38.21357 13.01261 3473 ft 162 kts 207°
2026-05-06 11:03 38.20384 13.00572 3306 ft 159 kts 207°
2026-05-06 11:03 38.19425 12.99890 3138 ft 157 kts 206°
2026-05-06 11:04 38.18470 12.99210 2984 ft 158 kts 206°
2026-05-06 11:04 38.17499 12.98519 2805 ft 161 kts 206°
2026-05-06 11:04 38.16499 12.97870 2551 ft 160 kts 192°
2026-05-06 11:04 38.15493 12.98109 2329 ft 152 kts 139°
2026-05-06 11:05 38.15037 12.99384 1709 ft 174 kts 96°
2026-05-06 11:05 38.14957 13.00865 1403 ft 162 kts 90°
2026-05-06 11:05 38.15278 13.02167 1209 ft 151 kts 63°
2026-05-06 11:05 38.15677 13.03397 1003 ft 149 kts 66°
2026-05-06 11:06 38.16068 13.04598 799 ft 143 kts 64°
2026-05-06 11:06 38.16460 13.05763 587 ft 146 kts 66°
2026-05-06 11:06 38.16862 13.06935 420 ft 145 kts 65°
2026-05-06 11:06 38.17255 13.08104 222 ft 142 kts 66°
2026-05-06 11:07 38.17632 13.09243 74 ft 133 kts 65°
2026-05-06 11:07 38.17959 13.10215 65 ft 103 kts 66°
2026-05-06 11:07 38.18192 13.10906 59 ft 63 kts 67°
2026-05-06 11:07 38.18322 13.11299 61 ft 44 kts 67°
2026-05-06 11:08 38.18436 13.11640 65 ft 40 kts 66°
2026-05-06 11:08 38.18509 13.11846 69 ft 16 kts 60°
2026-05-06 11:08 38.18576 13.11871 66 ft 11 kts 316°
2026-05-06 11:08 38.18598 13.11772 61 ft 13 kts 278°
2026-05-06 11:09 38.18611 13.11654 65 ft 15 kts 277°
2026-05-06 11:09 38.18597 13.11503 62 ft 20 kts 247°
2026-05-06 11:09 38.18539 13.11330 62 ft 22 kts 247°
2026-05-06 11:09 38.18478 13.11153 64 ft 22 kts 246°
2026-05-06 11:10 38.18432 13.11016 61 ft 16 kts 246°
2026-05-06 11:10 38.18467 13.10894 59 ft 16 kts 287°
2026-05-06 11:10 38.18490 13.10802 63 ft 10 kts 290°
2026-05-06 11:10 38.18503 13.10718 64 ft 10 kts 257°
2026-05-06 11:11 38.18478 13.10638 63 ft 10 kts 246°
2026-05-06 11:11 38.18469 13.10607 61 ft 2 kts 258°
2026-05-06 11:11 38.18483 13.10584 59 ft 6 kts 327°
2026-05-06 11:11 38.18520 13.10563 57 ft 4 kts 336°
2026-05-06 11:12 38.18528 13.10559 64 ft 0 kts 337°